GW5228 Weather Reports


time (UTC)temp
C
wind
direction
speed
KPH
gust
KPH
rain 1hr
cm
rain 24hr
cm
rain mn
cm
humidity
%
barometer
mb
20260510231409 24 176 8.0 8.0 0.00 0.00 0.00 60 986.0
20260510230909 24 170 6.4 6.4 0.00 0.00 0.00 58 985.9
20260510230409 24 167 4.8 4.8 0.00 0.00 0.00 62 985.7
20260510225909 24 166 6.4 6.4 0.00 0.00 0.00 61 985.8
20260510225409 24 160 6.4 6.4 0.00 0.00 0.00 61 985.6
20260510224909 24 158 6.4 6.4 0.00 0.00 0.00 61 985.7
20260510224409 24 160 6.4 6.4 0.00 0.00 0.00 60 985.7
20260510223909 24 165 4.8 4.8 0.00 0.00 0.00 61 985.8
20260510223409 24 166 4.8 4.8 0.00 0.00 0.00 60 985.7
20260510222909 24 151 6.4 6.4 0.00 0.00 0.00 59 985.6
20260510222409 24 160 6.4 6.4 0.00 0.00 0.00 57 985.7
20260510221909 24 152 8.0 8.0 0.00 0.00 0.00 58 985.6
20260510221409 25 150 4.8 4.8 0.00 0.00 0.00 60 985.6
20260510220909 25 161 8.0 8.0 0.00 0.00 0.00 57 985.7
20260510220409 25 156 8.0 8.0 0.00 0.00 0.00 57 985.6
20260510215908 25 165 9.7 9.7 0.00 0.00 0.00 58 985.7
20260510215409 25 152 6.4 6.4 0.00 0.00 0.00 57 985.6
20260510214909 25 141 9.7 9.7 0.00 0.00 0.00 57 985.5
20260510214409 25 141 8.0 8.0 0.00 0.00 0.00 57 985.7
20260510213909 25 157 4.8 4.8 0.00 0.00 0.00 54 985.5
20260510213409 26 149 6.4 6.4 0.00 0.00 0.00 54 985.7
20260510212909 26 115 4.8 4.8 0.00 0.00 0.00 51 985.7
20260510212409 26 117 6.4 6.4 0.00 0.00 0.00 52 985.7
20260510211909 26 143 6.4 6.4 0.00 0.00 0.00 49 985.8
20260510211409 26 46 1.6 1.6 0.00 0.00 0.00 47 985.9
20260510210908 26 41 3.2 3.2 0.00 0.00 0.00 47 985.8
20260510210409 25 61 1.6 1.6 0.00 0.00 0.00 47 985.8
20260510205909 25 114 3.2 3.2 0.00 0.00 0.00 54 985.8
20260510205409 25 122 1.6 1.6 0.00 0.00 0.00 57 985.9
20260510204909 25 75 3.2 3.2 0.00 0.00 0.00 54 985.9
20260510204409 25 56 6.4 6.4 0.00 0.00 0.00 56 985.7
20260510203909 25 96 3.2 3.2 0.00 0.00 0.00 54 986.1
20260510203409 25 73 6.4 6.4 0.00 0.00 0.00 52 986.0
20260510202909 25 53 6.4 6.4 0.00 0.00 0.00 49 986.3
20260510202409 26 60 6.4 6.4 0.00 0.00 0.00 51 986.4
20260510201909 26 80 6.4 6.4 0.00 0.00 0.00 50 986.5
20260510201409 26 154 4.8 4.8 0.00 0.00 0.00 50 986.4
20260510200909 26 181 3.2 3.2 0.00 0.00 0.00 53 986.5
20260510200409 26 155 4.8 4.8 0.00 0.00 0.00 53 986.6
20260510195909 26 146 3.2 3.2 0.00 0.00 0.00 54 986.4
20260510195409 26 134 8.0 8.0 0.00 0.00 0.00 53 986.4
20260510194909 26 191 4.8 4.8 0.00 0.00 0.00 53 986.5
20260510194409 26 188 8.0 8.0 0.00 0.00 0.00 51 986.6
20260510193909 26 216 8.0 8.0 0.00 0.00 0.00 53 986.4
20260510193409 26 172 11.3 11.3 0.00 0.00 0.00 51 986.5
20260510192909 26 176 4.8 4.8 0.00 0.00 0.00 52 986.5
20260510192409 26 203 6.4 6.4 0.00 0.00 0.00 53 986.4
20260510191909 26 143 4.8 4.8 0.00 0.00 0.00 52 986.5
20260510191409 26 162 1.6 1.6 0.00 0.00 0.00 53 986.5
20260510190909 26 115 0.0 0.0 0.00 0.00 0.00 55 986.5
20260510190409 26 112 4.8 4.8 0.00 0.00 0.00 53 986.3
20260510185909 25 150 4.8 4.8 0.00 0.00 0.00 54 986.3
20260510185409 25 174 4.8 4.8 0.00 0.00 0.00 54 986.4
20260510184908 26 186 3.2 3.2 0.00 0.00 0.00 53 986.5
20260510184408 26 342 1.6 1.6 0.00 0.00 0.00 56 986.6
20260510183909 26 173 1.6 1.6 0.00 0.00 0.00 54 986.7
20260510183409 25 18 3.2 3.2 0.00 0.00 0.00 55 986.6
20260510182909 25 340 4.8 4.8 0.00 0.00 0.00 56 986.8
20260510182409 25 90 1.6 1.6 0.00 0.00 0.00 58 986.8
20260510181909 25 344 1.6 1.6 0.00 0.00 0.00 59 986.9
20260510181409 24 9 1.6 1.6 0.00 0.00 0.00 58 987.1
20260510180909 24 329 4.8 4.8 0.00 0.00 0.00 58 987.1
20260510180409 24 304 8.0 8.0 0.00 0.00 0.00 63 987.1
20260510175909 24 17 1.6 1.6 0.00 0.00 0.00 64 987.0
20260510175409 23 0.0 0.0 0.00 0.00 0.00 60 987.1
20260510174909 23 217 1.6 1.6 0.00 0.00 0.00 59 987.3
20260510174409 23 335 6.4 6.4 0.00 0.00 0.00 61 987.4
20260510173909 23 334 6.4 6.4 0.00 0.00 0.00 61 987.3
20260510173409 24 318 8.0 8.0 0.00 0.00 0.00 64 987.4
20260510172909 24 321 3.2 3.2 0.00 0.00 0.00 64 987.3
20260510172409 24 297 3.2 3.2 0.00 0.00 0.00 63 987.6
20260510171909 23 341 6.4 6.4 0.00 0.00 0.00 59 987.4
20260510171409 23 290 9.7 9.7 0.00 0.00 0.00 58 987.4
20260510170909 23 359 3.2 3.2 0.00 0.00 0.00 67 987.5
20260510170409 23 60 1.6 1.6 0.00 0.00 0.00 68 987.5
20260510165909 23 307 9.7 9.7 0.00 0.00 0.00 67 987.7
20260510165409 23 348 1.6 1.6 0.00 0.00 0.00 73 987.6
20260510164909 23 279 3.2 3.2 0.00 0.00 0.00 69 987.6
20260510164409 23 300 3.2 3.2 0.00 0.00 0.00 75 987.5
20260510163909 23 298 8.0 8.0 0.00 0.00 0.00 77 987.4
20260510163409 23 285 4.8 4.8 0.00 0.00 0.00 76 987.5
20260510162909 22 275 4.8 4.8 0.00 0.00 0.00 76 987.6
20260510162409 23 286 8.0 8.0 0.00 0.00 0.00 74 987.5
20260510161909 23 318 4.8 4.8 0.00 0.00 0.00 76 987.6
20260510161409 22 255 3.2 3.2 0.00 0.00 0.00 76 987.5
20260510160909 22 264 4.8 4.8 0.00 0.00 0.00 78 987.5
20260510160409 22 258 1.6 1.6 0.00 0.00 0.00 80 987.5
20260510155909 22 240 1.6 1.6 0.00 0.00 0.00 81 987.5
20260510155409 22 262 1.6 1.6 0.00 0.00 0.00 81 987.5
20260510154909 21 305 3.2 3.2 0.00 0.00 0.00 81 987.6
20260510154409 21 328 8.0 8.0 0.00 0.00 0.00 82 987.6
20260510153909 22 298 8.0 8.0 0.00 0.00 0.00 82 987.6
20260510153409 21 268 3.2 3.2 0.00 0.00 0.00 83 987.7
20260510152909 21 294 3.2 3.2 0.00 0.00 0.00 83 987.6
20260510152409 21 294 4.8 4.8 0.00 0.00 0.00 84 987.4
20260510151909 21 330 4.8 4.8 0.00 0.00 0.00 83 987.4
20260510151409 21 296 6.4 6.4 0.00 0.00 0.00 84 987.4
20260510150909 21 306 1.6 1.6 0.00 0.00 0.00 83 987.4
20260510150409 21 336 0.0 0.0 0.00 0.00 0.00 84 987.3
20260510145909 21 327 3.2 3.2 0.00 0.00 0.00 84 987.4
20260510145409 21 300 3.2 3.2 0.00 0.00 0.00 83 987.4
20260510144909 21 261 6.4 6.4 0.00 0.00 0.00 83 987.4
20260510144409 21 304 0.0 0.0 0.00 0.00 0.00 83 987.3
20260510143909 21 193 1.6 1.6 0.00 0.00 0.00 83 987.2
20260510143409 21 192 1.6 1.6 0.00 0.00 0.00 84 987.2
20260510142909 20 271 3.2 3.2 0.00 0.00 0.00 84 987.3
20260510142409 20 266 4.8 4.8 0.00 0.00 0.00 84 987.2
20260510141909 20 0.0 0.0 0.00 0.00 0.00 83 987.2
20260510141409 20 279 1.6 1.6 0.00 0.00 0.00 84 987.2
20260510140909 21 278 3.2 3.2 0.00 0.00 0.00 83 987.2
20260510140409 21 0.0 0.0 0.00 0.00 0.00 84 987.1
20260510135909 20 0.0 0.0 0.00 0.00 0.00 85 987.1
20260510135409 20 0.0 0.0 0.00 0.00 0.00 86 987.1
20260510134909 20 331 1.6 1.6 0.00 0.00 0.00 85 987.2
20260510134409 20 298 1.6 1.6 0.00 0.00 0.00 85 987.0
20260510133909 19 170 0.0 0.0 0.00 0.00 0.00 86 987.0
20260510133409 19 0.0 0.0 0.00 0.00 0.00 86 987.2
20260510132909 19 0.0 0.0 0.00 0.00 0.00 87 987.0
20260510132409 18 0.0 0.0 0.00 0.00 0.00 88 987.1
20260510131909 18 172 1.6 1.6 0.00 0.00 0.00 88 987.1
20260510131409 18 163 4.8 4.8 0.00 0.00 0.00 89 987.0
20260510130909 18 173 3.2 3.2 0.00 0.00 0.00 89 986.9
20260510130409 18 169 3.2 3.2 0.00 0.00 0.00 89 986.9
20260510125909 17 178 3.2 3.2 0.00 0.00 0.00 89 986.9
20260510125409 17 186 6.4 6.4 0.00 0.00 0.00 89 986.7
20260510124909 17 184 6.4 6.4 0.00 0.00 0.00 89 986.7
20260510124409 17 186 6.4 6.4 0.00 0.00 0.00 89 986.6
20260510123909 17 196 9.7 9.7 0.00 0.00 0.00 89 986.6
20260510123409 17 206 8.0 8.0 0.00 0.00 0.00 89 986.6
20260510122908 17 209 8.0 8.0 0.00 0.00 0.00 89 986.6
20260510122409 18 199 8.0 8.0 0.00 0.00 0.00 89 986.6
20260510121909 18 203 6.4 6.4 0.00 0.00 0.00 89 986.6
20260510121409 18 213 9.7 9.7 0.00 0.00 0.00 90 986.4
20260510120909 17 212 11.3 11.3 0.00 0.00 0.00 91 986.4
20260510120409 17 201 11.3 11.3 0.00 0.00 0.00 92 986.3
20260510115909 16 183 8.0 8.0 0.00 0.00 0.00 91 986.1
20260510115409 17 172 6.4 6.4 0.00 0.00 0.00 91 986.0
20260510114909 17 209 8.0 8.0 0.00 0.00 0.00 92 985.9
20260510114409 17 198 8.0 8.0 0.00 0.00 0.00 92 985.9
20260510113909 17 181 6.4 6.4 0.00 0.00 0.00 92 985.7
20260510113409 16 193 6.4 6.4 0.00 0.00 0.00 92 985.8
20260510112909 16 178 4.8 4.8 0.00 0.00 0.00 91 985.7
20260510112408 16 182 6.4 6.4 0.00 0.00 0.00 91 985.6
20260510111909 17 182 4.8 4.8 0.00 0.00 0.00 91 985.5
20260510111409 17 188 4.8 4.8 0.00 0.00 0.00 91 985.5
20260510110909 17 180 6.4 6.4 0.00 0.00 0.00 91 985.4
20260510110409 17 191 4.8 4.8 0.00 0.00 0.00 91 985.3
20260510105909 17 206 6.4 6.4 0.00 0.00 0.00 92 985.2
20260510105408 17 182 4.8 4.8 0.00 0.00 0.00 91 985.2
20260510104908 17 179 4.8 4.8 0.00 0.00 0.00 91 985.1
20260510104409 17 191 6.4 6.4 0.00 0.00 0.00 91 985.1
20260510103909 17 185 4.8 4.8 0.00 0.00 0.00 91 985.0
20260510103409 17 191 4.8 4.8 0.00 0.00 0.00 91 984.9
20260510102909 17 183 3.2 3.2 0.00 0.00 0.00 90 984.9
20260510102409 17 184 1.6 1.6 0.00 0.00 0.00 90 984.7
20260510101909 17 188 1.6 1.6 0.00 0.00 0.00 90 984.7
20260510101409 17 242 4.8 4.8 0.00 0.00 0.00 90 984.6
20260510100909 17 217 4.8 4.8 0.00 0.00 0.00 89 984.7
20260510100409 17 235 6.4 6.4 0.00 0.00 0.00 89 984.6
20260510095909 17 257 8.0 8.0 0.00 0.00 0.00 90 984.5
20260510095409 17 246 6.4 6.4 0.00 0.00 0.00 90 984.4
20260510094908 17 212 6.4 6.4 0.00 0.00 0.00 90 984.5
20260510094409 17 233 6.4 6.4 0.00 0.00 0.00 90 984.4
20260510093909 17 214 6.4 6.4 0.00 0.00 0.00 90 984.4
20260510093409 17 217 6.4 6.4 0.00 0.00 0.00 90 984.3
20260510092909 17 192 6.4 6.4 0.00 0.00 0.00 90 984.1
20260510092409 17 202 9.7 9.7 0.00 0.00 0.00 90 984.2
20260510091909 17 221 8.0 8.0 0.00 0.00 0.00 90 984.0
20260510091408 17 205 8.0 8.0 0.00 0.00 0.00 90 984.1
20260510090909 17 231 9.7 9.7 0.00 0.00 0.00 90 984.2
20260510090409 17 218 14.5 14.5 0.00 0.00 0.00 90 984.2
20260510085909 17 242 11.3 11.3 0.00 0.00 0.00 89 984.3
20260510085408 17 233 12.9 12.9 0.00 0.00 0.00 89 984.2
20260510084909 17 212 9.7 9.7 0.00 0.00 0.00 89 984.3
20260510084409 17 184 12.9 12.9 0.00 0.00 0.00 89 984.1
20260510083909 17 210 9.7 9.7 0.00 0.00 0.00 89 984.2
20260510083409 17 211 12.9 12.9 0.00 0.00 0.00 89 984.1
20260510082909 17 219 12.9 12.9 0.00 0.00 0.00 89 984.1
20260510082408 17 195 11.3 11.3 0.00 0.00 0.00 89 984.1
20260510081909 17 207 12.9 12.9 0.00 0.00 0.00 89 984.1
20260510081409 17 197 12.9 12.9 0.00 0.00 0.00 89 984.1
20260510080908 17 195 11.3 11.3 0.00 0.00 0.00 89 984.0
20260510080409 17 186 9.7 9.7 0.00 0.00 0.00 89 983.9
20260510075909 17 184 11.3 11.3 0.00 0.00 0.00 89 984.0
20260510075409 17 188 9.7 9.7 0.00 0.00 0.00 89 984.0
20260510074909 17 189 14.5 14.5 0.00 0.00 0.00 89 984.0
20260510074408 17 174 12.9 12.9 0.00 0.00 0.00 89 983.9
20260510073909 17 184 11.3 11.3 0.00 0.00 0.00 89 983.8
20260510073409 17 190 11.3 11.3 0.00 0.00 0.00 89 983.8
20260510072909 17 181 11.3 11.3 0.00 0.00 0.00 89 983.8
20260510072409 17 179 9.7 9.7 0.00 0.00 0.00 89 983.7
20260510071909 17 174 11.3 11.3 0.00 0.00 0.00 89 983.6
20260510071409 17 181 9.7 9.7 0.00 0.00 0.00 89 983.6
20260510070909 17 185 9.7 9.7 0.00 0.00 0.00 88 983.8
20260510070409 17 181 9.7 9.7 0.00 0.00 0.00 88 983.9
20260510065909 17 194 14.5 14.5 0.00 0.00 0.00 88 983.9
20260510065409 17 198 12.9 12.9 0.00 0.00 0.00 88 983.8
20260510064909 17 191 11.3 11.3 0.00 0.00 0.00 89 983.9
20260510064409 17 180 9.7 9.7 0.00 0.00 0.00 88 983.9
20260510063909 17 183 9.7 9.7 0.00 0.00 0.00 89 984.0
20260510063409 17 181 11.3 11.3 0.00 0.00 0.00 88 983.9
20260510062909 17 191 12.9 12.9 0.00 0.00 0.00 88 983.9
20260510062409 17 190 9.7 9.7 0.00 0.00 0.00 88 983.9
20260510061909 17 182 12.9 12.9 0.00 0.00 0.00 88 983.8
20260510061409 17 186 9.7 9.7 0.00 0.00 0.00 88 983.9
20260510060909 17 197 8.0 8.0 0.00 0.00 0.00 88 983.9
20260510060408 17 186 9.7 9.7 0.00 0.00 0.00 87 983.9
20260510055909 18 179 9.7 9.7 0.00 0.00 0.00 87 983.9
20260510055409 18 177 11.3 11.3 0.00 0.00 0.00 87 983.8
20260510054909 18 174 12.9 12.9 0.00 0.00 0.00 87 983.8
20260510054409 18 182 11.3 11.3 0.00 0.00 0.00 87 983.9
20260510053909 18 185 9.7 9.7 0.00 0.00 0.00 87 983.8
20260510053408 18 180 16.1 16.1 0.00 0.00 0.00 86 983.8
20260510052909 18 174 12.9 12.9 0.00 0.00 0.00 86 983.7
20260510052408 18 181 11.3 11.3 0.00 0.00 0.00 86 983.7
20260510051909 18 172 16.1 16.1 0.00 0.00 0.00 86 983.8
20260510051409 18 180 16.1 16.1 0.00 0.00 0.00 86 983.9
20260510050909 18 184 16.1 16.1 0.00 0.00 0.00 86 984.0
20260510050409 18 171 12.9 12.9 0.00 0.00 0.00 87 983.9
20260510045909 18 172 12.9 12.9 0.00 0.00 0.00 87 983.8
20260510045409 18 173 14.5 14.5 0.00 0.00 0.00 87 983.8
20260510044909 18 176 19.3 19.3 0.00 0.00 0.00 87 983.6
20260510044409 18 161 17.7 17.7 0.00 0.00 0.00 87 983.8
20260510043909 18 171 20.9 20.9 0.00 0.00 0.00 88 983.7
20260510043409 18 169 17.7 17.7 0.00 0.00 0.00 88 983.6
20260510042909 18 175 20.9 20.9 0.00 0.00 0.00 88 983.8
20260510042409 18 179 16.1 16.1 0.00 0.00 0.00 88 983.8
20260510041909 18 175 17.7 17.7 0.00 0.00 0.00 88 984.0
20260510041409 18 164 19.3 19.3 0.00 0.00 0.00 88 984.0
20260510040909 18 178 17.7 17.7 0.00 0.00 0.00 88 984.0
20260510040409 18 176 24.1 24.1 0.00 0.00 0.00 88 984.0
20260510035909 18 174 19.3 19.3 0.00 0.00 0.00 88 984.1
20260510035409 18 176 19.3 19.3 0.00 0.00 0.00 88 984.1
20260510034909 18 178 14.5 14.5 0.00 0.00 0.00 87 984.2
20260510034409 18 177 20.9 20.9 0.00 0.00 0.00 87 984.3
20260510033909 18 185 17.7 17.7 0.00 0.00 0.00 87 984.2
20260510033409 18 176 19.3 19.3 0.00 0.00 0.00 87 984.2
20260510032909 18 182 17.7 17.7 0.00 0.00 0.00 86 984.2
20260510032409 18 180 17.7 17.7 0.00 0.00 0.00 86 984.2
20260510031909 18 183 20.9 20.9 0.00 0.00 0.00 85 984.2
20260510031409 18 176 17.7 17.7 0.00 0.00 0.00 85 984.0
20260510030909 19 188 19.3 19.3 0.00 0.00 0.00 85 984.0
20260510030409 19 172 12.9 12.9 0.00 0.00 0.00 84 984.0
20260510025909 19 171 12.9 12.9 0.00 0.00 0.00 83 983.9
20260510025409 19 176 17.7 17.7 0.00 0.00 0.00 82 983.9
20260510024909 20 174 17.7 17.7 0.00 0.00 0.00 82 983.8
20260510024409 20 173 19.3 19.3 0.00 0.00 0.00 82 983.7
20260510023908 20 171 16.1 16.1 0.00 0.00 0.00 81 983.5
20260510023409 20 176 14.5 14.5 0.00 0.00 0.00 80 983.6
20260510022909 20 170 12.9 12.9 0.00 0.00 0.00 80 983.4
20260510022409 20 170 14.5 14.5 0.00 0.00 0.00 79 983.4
20260510021909 20 174 16.1 16.1 0.00 0.00 0.00 79 983.3
20260510021409 20 172 12.9 12.9 0.00 0.00 0.00 80 983.2
20260510020909 20 172 11.3 11.3 0.00 0.00 0.00 80 983.2
20260510020409 20 171 11.3 11.3 0.00 0.00 0.00 79 983.1
20260510015909 20 176 12.9 12.9 0.00 0.00 0.00 79 983.0
20260510015409 20 172 16.1 16.1 0.00 0.00 0.00 79 982.8
20260510014909 20 172 11.3 11.3 0.00 0.00 0.00 80 982.7
20260510014409 20 169 9.7 9.7 0.00 0.00 0.00 80 982.7
20260510013909 20 173 12.9 12.9 0.00 0.00 0.00 79 982.6
20260510013409 21 177 12.9 12.9 0.00 0.00 0.00 78 982.3
20260510012909 21 179 11.3 11.3 0.00 0.00 0.00 78 982.2
20260510012409 21 176 11.3 11.3 0.00 0.00 0.00 77 982.1
20260510011909 21 179 14.5 14.5 0.00 0.00 0.00 78 982.2
20260510011409 21 177 12.9 12.9 0.00 0.00 0.00 78 982.0
20260510010909 21 169 8.0 8.0 0.00 0.00 0.00 78 982.0
20260510010409 21 163 11.3 11.3 0.00 0.00 0.00 78 982.0
20260510005909 21 177 9.7 9.7 0.00 0.00 0.00 76 981.9
20260510005409 21 184 9.7 9.7 0.00 0.00 0.00 76 981.8
20260510004909 21 175 9.7 9.7 0.00 0.00 0.00 76 981.7
20260510004409 21 176 8.0 8.0 0.00 0.00 0.00 75 981.6
20260510003909 22 181 9.7 9.7 0.00 0.00 0.00 75 981.6
20260510003409 22 183 8.0 8.0 0.00 0.00 0.00 74 981.5
20260510002909 22 181 9.7 9.7 0.00 0.00 0.00 73 981.6
20260510002409 22 181 11.3 11.3 0.00 0.00 0.00 72 981.5
20260510001909 23 183 9.7 9.7 0.00 0.00 0.00 71 981.5
20260510001408 23 188 8.0 8.0 0.00 0.00 0.00 68 981.4
20260510000909 23 188 8.0 8.0 0.00 0.00 0.00 66 981.5
20260510000411 23 188 6.4 6.4 0.00 0.00 0.00 66 981.4
20260509235909 23 195 6.4 6.4 0.00 0.00 0.00 65 981.3
20260509235408 23 201 8.0 8.0 0.00 0.00 0.00 65 981.3
20260509234909 23 193 6.4 6.4 0.00 0.00 0.00 66 981.4
20260509234409 23 188 4.8 4.8 0.00 0.00 0.00 66 981.3
20260509233909 23 187 6.4 6.4 0.00 0.00 0.00 66 981.4
20260509233409 23 189 6.4 6.4 0.00 0.00 0.00 67 981.2
20260509232909 23 183 4.8 4.8 0.00 0.00 0.00 66 981.4
20260509232409 23 181 4.8 4.8 0.00 0.00 0.00 66 981.2
20260509231909 23 180 3.2 3.2 0.00 0.00 0.00 66 981.3